Time,TemperatureF,DewpointF,PressureIn,WindDirection,WindDirectionDegrees,WindSpeedMPH,WindSpeedGustMPH,Humidity,HourlyPrecipIn,Conditions,Clouds,dailyrainin,SoftwareType,DateUTC
2013-09-07 00:01:00,83.4,76.0,30.01,ESE,112,3.0,3.0,78,0.00,,,0.00,Rainwise IP-100,2013-09-07 04:01:00,
2013-09-07 00:06:00,83.5,76.0,30.01,ENE,67,1.2,8.0,78,0.00,,,0.00,Rainwise IP-100,2013-09-07 04:06:00,
2013-09-07 00:11:00,83.4,76.0,30.01,SE,135,1.9,6.0,78,0.00,,,0.00,Rainwise IP-100,2013-09-07 04:11:00,
2013-09-07 00:16:00,83.3,76.0,30.01,East,90,1.4,4.0,79,0.00,,,0.00,Rainwise IP-100,2013-09-07 04:16:00,
2013-09-07 00:21:00,83.3,76.0,30.01,ENE,67,0.0,4.0,79,0.00,,,0.00,Rainwise IP-100,2013-09-07 04:21:00,
2013-09-07 00:26:00,83.2,76.0,30.01,ENE,67,0.0,4.0,79,0.00,,,0.00,Rainwise IP-100,2013-09-07 04:26:00,
2013-09-07 00:31:00,83.2,76.0,30.00,ENE,67,2.8,5.0,79,0.00,,,0.00,Rainwise IP-100,2013-09-07 04:31:00,
2013-09-07 00:37:00,83.2,76.0,30.00,ENE,67,0.0,4.0,79,0.00,,,0.00,Rainwise IP-100,2013-09-07 04:37:00,
2013-09-07 00:42:00,83.2,76.0,30.00,ESE,112,0.0,1.0,80,0.00,,,0.00,Rainwise IP-100,2013-09-07 04:42:00,
2013-09-07 00:47:00,83.2,76.0,30.00,ESE,112,1.2,1.2,80,0.00,,,0.00,Rainwise IP-100,2013-09-07 04:47:00,
2013-09-07 00:52:00,83.1,76.0,29.99,ESE,112,0.0,3.0,80,0.00,,,0.00,Rainwise IP-100,2013-09-07 04:52:00,
2013-09-07 00:57:00,83.0,76.0,30.00,ESE,112,1.4,1.4,80,0.00,,,0.00,Rainwise IP-100,2013-09-07 04:57:00,
2013-09-07 01:02:00,82.9,76.0,29.99,ENE,67,2.8,3.0,80,0.00,,,0.00,Rainwise IP-100,2013-09-07 05:02:00,
2013-09-07 01:07:00,83.0,76.0,29.99,ENE,67,1.2,3.0,80,0.00,,,0.00,Rainwise IP-100,2013-09-07 05:07:00,
2013-09-07 01:13:00,83.0,76.0,29.99,ENE,67,2.1,3.0,80,0.00,,,0.00,Rainwise IP-100,2013-09-07 05:13:00,
2013-09-07 01:18:00,82.9,76.0,29.99,ENE,67,1.4,3.0,80,0.00,,,0.00,Rainwise IP-100,2013-09-07 05:18:00,
2013-09-07 01:23:00,83.1,76.0,29.99,ENE,67,1.6,3.0,80,0.00,,,0.00,Rainwise IP-100,2013-09-07 05:23:00,
2013-09-07 01:28:00,83.0,76.0,29.98,NNE,22,3.0,3.0,80,0.00,,,0.00,Rainwise IP-100,2013-09-07 05:28:00,
2013-09-07 01:33:00,82.9,76.0,29.98,NNE,22,2.6,4.0,81,0.00,,,0.00,Rainwise IP-100,2013-09-07 05:33:00,
2013-09-07 01:38:00,82.9,76.0,29.98,NNE,22,2.1,4.0,81,0.00,,,0.00,Rainwise IP-100,2013-09-07 05:38:00,
2013-09-07 01:43:00,83.0,76.0,29.98,NE,45,2.1,3.0,81,0.00,,,0.00,Rainwise IP-100,2013-09-07 05:43:00,
2013-09-07 01:48:00,83.0,76.0,29.98,ENE,67,3.5,3.5,81,0.00,,,0.00,Rainwise IP-100,2013-09-07 05:48:00,
2013-09-07 01:54:00,82.9,76.0,29.98,NE,45,4.0,5.0,81,0.00,,,0.00,Rainwise IP-100,2013-09-07 05:54:00,
2013-09-07 01:59:00,82.8,76.0,29.97,ENE,67,3.3,6.0,81,0.00,,,0.00,Rainwise IP-100,2013-09-07 05:59:00,
2013-09-07 02:04:00,82.9,76.0,29.97,ENE,67,3.0,6.0,81,0.00,,,0.00,Rainwise IP-100,2013-09-07 06:04:00,
2013-09-07 02:09:00,82.9,76.0,29.97,ENE,67,2.6,6.0,81,0.00,,,0.00,Rainwise IP-100,2013-09-07 06:09:00,
2013-09-07 02:14:00,82.9,76.0,29.97,ENE,67,4.4,4.4,81,0.00,,,0.00,Rainwise IP-100,2013-09-07 06:14:00,
2013-09-07 02:19:00,82.9,76.0,29.97,ENE,67,4.7,6.0,80,0.00,,,0.00,Rainwise IP-100,2013-09-07 06:19:00,
2013-09-07 02:24:00,82.9,76.0,29.97,ENE,67,4.9,6.0,80,0.00,,,0.00,Rainwise IP-100,2013-09-07 06:24:00,
2013-09-07 02:30:00,83.0,76.0,29.97,NNE,22,3.5,4.0,80,0.00,,,0.00,Rainwise IP-100,2013-09-07 06:30:00,
2013-09-07 02:35:00,83.1,76.0,29.96,ENE,67,3.3,5.0,80,0.00,,,0.00,Rainwise IP-100,2013-09-07 06:35:00,
2013-09-07 02:40:00,82.9,76.0,29.97,ENE,67,4.7,8.0,81,0.00,,,0.00,Rainwise IP-100,2013-09-07 06:40:00,
2013-09-07 02:45:00,82.9,76.0,29.96,ENE,67,4.2,5.0,81,0.00,,,0.00,Rainwise IP-100,2013-09-07 06:45:00,
2013-09-07 02:50:00,83.0,76.0,29.96,ENE,67,4.0,5.0,81,0.00,,,0.00,Rainwise IP-100,2013-09-07 06:50:00,
2013-09-07 02:55:00,82.9,76.0,29.96,ENE,67,6.8,6.8,81,0.00,,,0.00,Rainwise IP-100,2013-09-07 06:55:00,
2013-09-07 03:00:00,82.8,76.0,29.96,NE,45,4.7,8.0,81,0.00,,,0.00,Rainwise IP-100,2013-09-07 07:00:00,
2013-09-07 03:05:00,82.9,76.0,29.95,ENE,67,7.7,7.7,80,0.00,,,0.00,Rainwise IP-100,2013-09-07 07:05:00,
2013-09-07 03:11:00,83.0,76.0,29.95,ENE,67,4.0,7.0,80,0.00,,,0.00,Rainwise IP-100,2013-09-07 07:11:00,
2013-09-07 03:16:00,83.1,76.0,29.95,East,90,3.5,6.0,80,0.00,,,0.00,Rainwise IP-100,2013-09-07 07:16:00,
2013-09-07 03:21:00,83.1,76.0,29.95,ENE,67,4.0,5.0,81,0.00,,,0.00,Rainwise IP-100,2013-09-07 07:21:00,
2013-09-07 03:26:00,82.9,76.0,29.95,East,90,3.0,8.0,81,0.00,,,0.00,Rainwise IP-100,2013-09-07 07:26:00,
2013-09-07 03:31:00,82.8,76.0,29.94,ENE,67,4.9,7.0,80,0.00,,,0.00,Rainwise IP-100,2013-09-07 07:31:00,
2013-09-07 03:36:00,82.8,76.0,29.94,ENE,67,3.7,7.0,80,0.00,,,0.00,Rainwise IP-100,2013-09-07 07:36:00,
2013-09-07 03:41:00,83.0,76.0,29.94,ENE,67,3.7,8.0,80,0.00,,,0.00,Rainwise IP-100,2013-09-07 07:41:00,
2013-09-07 03:47:00,83.0,76.0,29.94,ENE,67,4.7,8.0,80,0.00,,,0.00,Rainwise IP-100,2013-09-07 07:47:00,
2013-09-07 03:52:00,82.9,76.0,29.95,NE,45,3.7,7.0,80,0.00,,,0.00,Rainwise IP-100,2013-09-07 07:52:00,
2013-09-07 03:57:00,83.0,76.0,29.95,ENE,67,4.9,7.0,80,0.00,,,0.00,Rainwise IP-100,2013-09-07 07:57:00,
2013-09-07 04:02:00,83.0,76.0,29.95,ENE,67,3.7,6.0,81,0.00,,,0.00,Rainwise IP-100,2013-09-07 08:02:00,
2013-09-07 04:07:00,82.8,76.0,29.95,ENE,67,6.3,7.0,80,0.00,,,0.00,Rainwise IP-100,2013-09-07 08:07:00,
2013-09-07 04:12:00,82.8,75.0,29.95,ENE,67,8.2,8.2,79,0.00,,,0.00,Rainwise IP-100,2013-09-07 08:12:00,
2013-09-07 04:17:00,83.0,76.0,29.95,NNE,22,4.4,8.0,79,0.00,,,0.00,Rainwise IP-100,2013-09-07 08:17:00,
2013-09-07 04:22:00,83.0,76.0,29.95,ENE,67,5.6,5.6,79,0.00,,,0.00,Rainwise IP-100,2013-09-07 08:22:00,
2013-09-07 04:28:00,82.9,76.0,29.95,NNE,22,5.4,7.0,79,0.00,,,0.00,Rainwise IP-100,2013-09-07 08:28:00,
2013-09-07 04:33:00,82.9,76.0,29.95,NE,45,4.7,7.0,80,0.00,,,0.00,Rainwise IP-100,2013-09-07 08:33:00,
2013-09-07 04:38:00,82.8,75.0,29.95,ENE,67,7.7,8.0,79,0.00,,,0.00,Rainwise IP-100,2013-09-07 08:38:00,
2013-09-07 04:43:00,82.8,75.0,29.95,ENE,67,5.1,8.0,79,0.00,,,0.00,Rainwise IP-100,2013-09-07 08:43:00,
2013-09-07 04:48:00,82.9,75.0,29.95,NE,45,7.2,8.0,78,0.00,,,0.00,Rainwise IP-100,2013-09-07 08:48:00,
2013-09-07 04:53:00,83.0,75.0,29.95,ENE,67,5.1,8.0,78,0.00,,,0.00,Rainwise IP-100,2013-09-07 08:53:00,
2013-09-07 04:58:00,83.1,75.0,29.95,ENE,67,2.1,8.0,78,0.00,,,0.00,Rainwise IP-100,2013-09-07 08:58:00,
2013-09-07 05:04:00,83.0,76.0,29.95,NNE,22,5.1,7.0,79,0.00,,,0.00,Rainwise IP-100,2013-09-07 09:04:00,
2013-09-07 05:09:00,82.9,76.0,29.95,ENE,67,5.8,9.0,80,0.00,,,0.00,Rainwise IP-100,2013-09-07 09:09:00,
2013-09-07 05:14:00,82.9,76.0,29.95,NE,45,4.7,9.0,80,0.00,,,0.00,Rainwise IP-100,2013-09-07 09:14:00,
2013-09-07 05:19:00,82.8,76.0,29.95,NE,45,4.7,8.0,80,0.00,,,0.00,Rainwise IP-100,2013-09-07 09:19:00,
2013-09-07 05:24:00,82.8,76.0,29.95,ENE,67,5.4,9.0,80,0.00,,,0.00,Rainwise IP-100,2013-09-07 09:24:00,
2013-09-07 05:29:00,82.7,76.0,29.95,NE,45,5.6,9.0,80,0.00,,,0.00,Rainwise IP-100,2013-09-07 09:29:00,
2013-09-07 05:34:00,82.7,76.0,29.95,ENE,67,4.7,8.0,80,0.00,,,0.00,Rainwise IP-100,2013-09-07 09:34:00,
2013-09-07 05:39:00,82.7,76.0,29.95,NNE,22,1.9,7.0,80,0.00,,,0.00,Rainwise IP-100,2013-09-07 09:39:00,
2013-09-07 05:45:00,82.6,76.0,29.95,NNE,22,2.1,7.0,80,0.00,,,0.00,Rainwise IP-100,2013-09-07 09:45:00,
2013-09-07 05:50:00,82.6,76.0,29.95,NNE,22,3.3,6.0,80,0.00,,,0.00,Rainwise IP-100,2013-09-07 09:50:00,
2013-09-07 05:55:00,82.6,76.0,29.96,NNE,22,6.1,7.0,81,0.00,,,0.00,Rainwise IP-100,2013-09-07 09:55:00,
2013-09-07 06:00:00,82.6,76.0,29.96,NNW,337,2.6,6.0,81,0.00,,,0.00,Rainwise IP-100,2013-09-07 10:00:00,
2013-09-07 06:05:00,82.4,76.0,29.97,WNW,292,2.6,4.0,81,0.00,,,0.00,Rainwise IP-100,2013-09-07 10:05:00,
2013-09-07 06:10:00,81.9,75.0,29.96,NNW,337,3.3,3.3,81,0.00,,,0.00,Rainwise IP-100,2013-09-07 10:10:00,
2013-09-07 06:15:00,81.4,75.0,29.97,NNE,22,2.1,4.0,82,0.00,,,0.00,Rainwise IP-100,2013-09-07 10:15:00,
2013-09-07 06:21:00,81.1,75.0,29.97,NNW,337,1.6,5.0,83,0.00,,,0.00,Rainwise IP-100,2013-09-07 10:21:00,
2013-09-07 06:26:00,80.9,76.0,29.96,NNW,337,2.8,5.0,84,0.00,,,0.00,Rainwise IP-100,2013-09-07 10:26:00,
2013-09-07 06:31:00,80.8,75.0,29.96,NW,315,4.4,6.0,84,0.00,,,0.00,Rainwise IP-100,2013-09-07 10:31:00,
2013-09-07 06:36:00,80.9,76.0,29.96,NNW,337,3.7,7.0,85,0.00,,,0.00,Rainwise IP-100,2013-09-07 10:36:00,
2013-09-07 06:41:00,80.7,75.0,29.97,NNE,22,12.8,14.0,84,0.00,,,0.00,Rainwise IP-100,2013-09-07 10:41:00,
2013-09-07 06:46:00,80.7,74.0,29.97,North,360,10.7,15.0,80,0.00,,,0.00,Rainwise IP-100,2013-09-07 10:46:00,
2013-09-07 06:51:00,81.2,72.0,29.97,NNW,337,5.8,12.0,74,0.00,,,0.00,Rainwise IP-100,2013-09-07 10:51:00,
2013-09-07 06:56:00,81.6,72.0,29.98,NNW,337,10.5,11.0,74,0.00,,,0.00,Rainwise IP-100,2013-09-07 10:56:00,
2013-09-07 07:02:00,80.7,73.0,29.98,NNW,337,5.6,14.0,78,0.00,,,0.00,Rainwise IP-100,2013-09-07 11:02:00,
2013-09-07 07:07:00,79.3,72.0,29.97,North,360,11.2,18.0,80,0.00,,,0.00,Rainwise IP-100,2013-09-07 11:07:00,
2013-09-07 07:12:00,78.0,72.0,29.97,NNE,22,10.0,20.0,81,0.00,,,0.00,Rainwise IP-100,2013-09-07 11:12:00,
2013-09-07 07:17:00,77.5,72.0,29.98,NW,315,4.4,20.0,83,0.00,,,0.00,Rainwise IP-100,2013-09-07 11:17:00,
2013-09-07 07:22:00,77.1,72.0,29.98,NNE,22,9.3,20.0,85,0.00,,,0.00,Rainwise IP-100,2013-09-07 11:22:00,
2013-09-07 07:27:00,76.7,72.0,29.98,NNE,22,7.7,12.0,85,0.00,,,0.00,Rainwise IP-100,2013-09-07 11:27:00,
2013-09-07 07:32:00,76.6,71.0,29.98,North,360,6.1,16.0,85,0.00,,,0.00,Rainwise IP-100,2013-09-07 11:32:00,
2013-09-07 07:38:00,77.2,72.0,29.99,NNE,22,6.3,13.0,83,0.00,,,0.00,Rainwise IP-100,2013-09-07 11:38:00,
2013-09-07 07:43:00,77.9,72.0,29.99,NNE,22,7.7,10.0,82,0.00,,,0.00,Rainwise IP-100,2013-09-07 11:43:00,
2013-09-07 07:48:00,78.3,72.0,29.98,NNW,337,4.9,13.0,82,0.00,,,0.00,Rainwise IP-100,2013-09-07 11:48:00,
2013-09-07 07:53:00,78.6,73.0,29.98,NE,45,8.9,11.0,83,0.00,,,0.00,Rainwise IP-100,2013-09-07 11:53:00,
2013-09-07 07:58:00,78.6,72.0,29.98,NE,45,5.6,12.0,82,0.00,,,0.00,Rainwise IP-100,2013-09-07 11:58:00,
2013-09-07 08:03:00,78.6,72.0,29.99,NNE,22,7.2,8.0,81,0.00,,,0.00,Rainwise IP-100,2013-09-07 12:03:00,
2013-09-07 08:08:00,78.7,72.0,30.00,NNE,22,10.0,11.0,80,0.00,,,0.00,Rainwise IP-100,2013-09-07 12:08:00,
2013-09-07 08:13:00,79.2,72.0,30.00,ENE,67,6.3,12.0,79,0.00,,,0.00,Rainwise IP-100,2013-09-07 12:13:00,
2013-09-07 08:19:00,79.6,72.0,30.00,ENE,67,7.2,12.0,78,0.00,,,0.00,Rainwise IP-100,2013-09-07 12:19:00,
2013-09-07 08:24:00,79.8,72.0,30.00,ENE,67,5.8,8.0,77,0.00,,,0.00,Rainwise IP-100,2013-09-07 12:24:00,
2013-09-07 08:29:00,79.8,72.0,30.00,East,90,7.5,11.0,79,0.00,,,0.00,Rainwise IP-100,2013-09-07 12:29:00,
2013-09-07 08:34:00,79.5,73.0,30.00,ENE,67,7.0,8.0,80,0.00,,,0.00,Rainwise IP-100,2013-09-07 12:34:00,
2013-09-07 08:39:00,79.3,72.0,30.01,East,90,4.2,11.0,78,0.00,,,0.00,Rainwise IP-100,2013-09-07 12:39:00,
2013-09-07 08:44:00,79.4,71.0,30.01,ENE,67,8.4,9.0,77,0.00,,,0.00,Rainwise IP-100,2013-09-07 12:44:00,
2013-09-07 08:49:00,79.5,72.0,30.00,ENE,67,3.7,11.0,77,0.00,,,0.00,Rainwise IP-100,2013-09-07 12:49:00,
2013-09-07 08:55:00,79.6,72.0,30.00,ESE,112,4.7,5.0,77,0.00,,,0.00,Rainwise IP-100,2013-09-07 12:55:00,
2013-09-07 09:00:00,79.7,72.0,30.00,East,90,0.0,7.0,78,0.00,,,0.00,Rainwise IP-100,2013-09-07 13:00:00,
2013-09-07 09:05:00,79.4,72.0,29.99,ESE,112,1.6,4.0,79,0.00,,,0.00,Rainwise IP-100,2013-09-07 13:05:00,
2013-09-07 09:10:00,79.2,72.0,29.99,ENE,67,0.0,3.0,79,0.00,,,0.00,Rainwise IP-100,2013-09-07 13:10:00,
2013-09-07 09:15:00,79.5,72.0,29.99,ENE,67,0.0,2.0,79,0.00,,,0.00,Rainwise IP-100,2013-09-07 13:15:00,
2013-09-07 09:20:00,79.8,72.0,30.00,South,180,0.0,3.0,79,0.00,,,0.00,Rainwise IP-100,2013-09-07 13:20:00,
2013-09-07 09:25:00,79.9,72.0,30.00,East,90,2.6,2.6,79,0.00,,,0.00,Rainwise IP-100,2013-09-07 13:25:00,
2013-09-07 09:30:00,80.0,73.0,30.00,East,90,0.0,3.0,80,0.00,,,0.00,Rainwise IP-100,2013-09-07 13:30:00,
2013-09-07 09:36:00,80.1,73.0,30.01,East,90,0.0,0.0,80,0.00,,,0.00,Rainwise IP-100,2013-09-07 13:36:00,
2013-09-07 09:41:00,80.2,73.0,30.01,SE,135,4.4,7.0,80,0.00,,,0.00,Rainwise IP-100,2013-09-07 13:41:00,
2013-09-07 09:46:00,80.3,73.0,30.01,SSE,157,3.0,8.0,80,0.00,,,0.00,Rainwise IP-100,2013-09-07 13:46:00,
2013-09-07 09:51:00,80.4,73.0,30.01,SSE,157,4.2,8.0,80,0.00,,,0.00,Rainwise IP-100,2013-09-07 13:51:00,
2013-09-07 09:56:00,80.5,73.0,30.01,SE,135,3.7,8.0,80,0.00,,,0.00,Rainwise IP-100,2013-09-07 13:56:00,
2013-09-07 10:01:00,80.6,73.0,30.01,SSE,157,3.7,6.0,80,0.00,,,0.00,Rainwise IP-100,2013-09-07 14:01:00,
2013-09-07 10:06:00,80.7,74.0,30.01,ESE,112,2.3,7.0,80,0.00,,,0.00,Rainwise IP-100,2013-09-07 14:06:00,
2013-09-07 10:12:00,80.7,74.0,30.01,South,180,1.9,4.0,81,0.00,,,0.00,Rainwise IP-100,2013-09-07 14:12:00,
2013-09-07 10:17:00,80.6,74.0,30.01,ESE,112,2.8,5.0,81,0.00,,,0.00,Rainwise IP-100,2013-09-07 14:17:00,
2013-09-07 10:22:00,80.6,74.0,30.01,SSE,157,1.4,6.0,82,0.00,,,0.00,Rainwise IP-100,2013-09-07 14:22:00,
2013-09-07 10:27:00,80.7,74.0,30.01,SSE,157,0.0,2.0,82,0.00,,,0.00,Rainwise IP-100,2013-09-07 14:27:00,
2013-09-07 10:32:00,80.9,75.0,30.01,SSE,157,0.0,1.0,82,0.00,,,0.00,Rainwise IP-100,2013-09-07 14:32:00,
2013-09-07 10:37:00,81.1,75.0,30.02,SSW,202,1.9,3.0,82,0.00,,,0.00,Rainwise IP-100,2013-09-07 14:37:00,
2013-09-07 10:42:00,81.3,75.0,30.01,SSW,202,0.0,2.0,82,0.00,,,0.00,Rainwise IP-100,2013-09-07 14:42:00,
2013-09-07 10:47:00,81.6,75.0,30.02,SSW,202,0.0,1.0,82,0.00,,,0.00,Rainwise IP-100,2013-09-07 14:47:00,
2013-09-07 10:53:00,82.0,75.0,30.02,SSW,202,0.0,1.0,81,0.00,,,0.00,Rainwise IP-100,2013-09-07 14:53:00,
2013-09-07 10:58:00,82.3,75.0,30.01,ESE,112,3.0,3.0,80,0.00,,,0.00,Rainwise IP-100,2013-09-07 14:58:00,
2013-09-07 11:03:00,82.5,76.0,30.02,SSE,157,0.0,4.0,80,0.00,,,0.00,Rainwise IP-100,2013-09-07 15:03:00,
2013-09-07 11:08:00,82.7,75.0,30.01,ESE,112,1.9,4.0,79,0.00,,,0.00,Rainwise IP-100,2013-09-07 15:08:00,
2013-09-07 11:13:00,82.9,76.0,30.01,SSW,202,0.0,5.0,79,0.00,,,0.00,Rainwise IP-100,2013-09-07 15:13:00,
2013-09-07 11:18:00,83.3,76.0,30.01,SSW,202,1.2,5.0,78,0.00,,,0.00,Rainwise IP-100,2013-09-07 15:18:00,
2013-09-07 11:23:00,83.4,75.0,30.01,SE,135,2.3,6.0,77,0.00,,,0.00,Rainwise IP-100,2013-09-07 15:23:00,
2013-09-07 11:29:00,83.8,76.0,30.01,SSE,157,1.2,5.0,77,0.00,,,0.00,Rainwise IP-100,2013-09-07 15:29:00,
2013-09-07 11:34:00,84.0,76.0,30.01,ESE,112,0.0,5.0,76,0.00,,,0.00,Rainwise IP-100,2013-09-07 15:34:00,
2013-09-07 11:39:00,84.0,76.0,30.02,ESE,112,0.0,7.0,77,0.00,,,0.00,Rainwise IP-100,2013-09-07 15:39:00,
2013-09-07 11:44:00,83.9,76.0,30.01,SSE,157,0.0,4.0,77,0.00,,,0.00,Rainwise IP-100,2013-09-07 15:44:00,
2013-09-07 11:49:00,84.1,76.0,30.01,ESE,112,2.8,6.0,77,0.00,,,0.00,Rainwise IP-100,2013-09-07 15:49:00,
2013-09-07 11:54:00,83.7,76.0,30.02,ESE,112,4.9,5.0,77,0.00,,,0.00,Rainwise IP-100,2013-09-07 15:54:00,
2013-09-07 11:59:00,83.5,76.0,30.02,SSW,202,1.9,6.0,78,0.00,,,0.00,Rainwise IP-100,2013-09-07 15:59:00,
2013-09-07 12:04:00,83.4,76.0,30.02,SSE,157,7.5,7.5,79,0.00,,,0.00,Rainwise IP-100,2013-09-07 16:04:00,
2013-09-07 12:10:00,83.1,76.0,30.02,South,180,2.1,8.0,80,0.00,,,0.00,Rainwise IP-100,2013-09-07 16:10:00,
2013-09-07 12:15:00,82.9,76.0,30.02,SSW,202,3.7,6.0,81,0.00,,,0.00,Rainwise IP-100,2013-09-07 16:15:00,
2013-09-07 12:20:00,82.9,76.0,30.01,SSW,202,6.8,6.8,80,0.00,,,0.00,Rainwise IP-100,2013-09-07 16:20:00,
2013-09-07 12:25:00,82.9,76.0,30.02,SE,135,4.2,7.0,79,0.00,,,0.00,Rainwise IP-100,2013-09-07 16:25:00,
2013-09-07 12:30:00,83.0,76.0,30.01,SSW,202,3.3,6.0,79,0.00,,,0.00,Rainwise IP-100,2013-09-07 16:30:00,
2013-09-07 12:35:00,83.3,76.0,30.01,SE,135,3.7,5.0,79,0.00,,,0.00,Rainwise IP-100,2013-09-07 16:35:00,
2013-09-07 12:40:00,83.5,76.0,30.01,SSE,157,4.2,7.0,78,0.00,,,0.00,Rainwise IP-100,2013-09-07 16:40:00,
2013-09-07 12:46:00,83.8,76.0,30.01,SSE,157,2.1,4.0,77,0.00,,,0.00,Rainwise IP-100,2013-09-07 16:46:00,
2013-09-07 12:51:00,84.6,76.0,30.01,SSW,202,0.0,4.0,76,0.00,,,0.00,Rainwise IP-100,2013-09-07 16:51:00,
2013-09-07 12:56:00,85.4,76.0,30.01,East,90,0.0,4.0,74,0.00,,,0.00,Rainwise IP-100,2013-09-07 16:56:00,
2013-09-07 13:01:00,85.8,76.0,30.01,SSE,157,2.8,4.0,73,0.00,,,0.00,Rainwise IP-100,2013-09-07 17:01:00,
2013-09-07 13:06:00,85.6,75.0,30.01,SSE,157,0.0,5.0,72,0.00,,,0.00,Rainwise IP-100,2013-09-07 17:06:00,
2013-09-07 13:11:00,85.6,75.0,30.01,SSE,157,2.1,4.0,72,0.00,,,0.00,Rainwise IP-100,2013-09-07 17:11:00,
2013-09-07 13:16:00,85.9,76.0,30.01,SSE,157,4.0,4.0,72,0.00,,,0.00,Rainwise IP-100,2013-09-07 17:16:00,
2013-09-07 13:21:00,85.5,74.0,30.01,ESE,112,4.0,6.0,71,0.00,,,0.00,Rainwise IP-100,2013-09-07 17:21:00,
2013-09-07 13:27:00,84.9,74.0,30.01,SSE,157,1.9,4.0,71,0.00,,,0.00,Rainwise IP-100,2013-09-07 17:27:00,
2013-09-07 13:32:00,85.4,74.0,30.00,SSE,157,2.3,5.0,71,0.00,,,0.00,Rainwise IP-100,2013-09-07 17:32:00,
2013-09-07 13:37:00,86.0,76.0,30.00,ESE,112,0.0,4.0,72,0.00,,,0.00,Rainwise IP-100,2013-09-07 17:37:00,
2013-09-07 13:42:00,86.1,76.0,30.00,ESE,112,0.0,4.0,72,0.00,,,0.00,Rainwise IP-100,2013-09-07 17:42:00,
2013-09-07 13:47:00,86.2,76.0,30.00,SSE,157,3.0,5.0,72,0.00,,,0.00,Rainwise IP-100,2013-09-07 17:47:00,
2013-09-07 13:52:00,86.0,76.0,30.00,ESE,112,4.7,6.0,72,0.00,,,0.00,Rainwise IP-100,2013-09-07 17:52:00,
2013-09-07 13:57:00,85.8,75.0,30.00,SSW,202,0.0,6.0,72,0.00,,,0.00,Rainwise IP-100,2013-09-07 17:57:00,
2013-09-07 14:03:00,85.6,75.0,30.00,SSE,157,4.4,6.0,72,0.00,,,0.00,Rainwise IP-100,2013-09-07 18:03:00,
2013-09-07 14:08:00,85.4,76.0,30.00,SSE,157,6.1,8.0,73,0.00,,,0.00,Rainwise IP-100,2013-09-07 18:08:00,
2013-09-07 14:13:00,85.1,75.0,29.99,SSE,157,3.3,6.0,73,0.00,,,0.00,Rainwise IP-100,2013-09-07 18:13:00,
2013-09-07 14:18:00,85.7,75.0,29.99,SE,135,0.0,5.0,72,0.00,,,0.00,Rainwise IP-100,2013-09-07 18:18:00,
2013-09-07 14:23:00,86.6,76.0,29.99,SSE,157,1.9,3.0,71,0.00,,,0.00,Rainwise IP-100,2013-09-07 18:23:00,
2013-09-07 14:28:00,86.7,76.0,29.98,SSE,157,4.0,8.0,70,0.00,,,0.00,Rainwise IP-100,2013-09-07 18:28:00,
2013-09-07 14:33:00,86.0,75.0,29.98,ESE,112,3.3,8.0,70,0.00,,,0.00,Rainwise IP-100,2013-09-07 18:33:00,
2013-09-07 14:38:00,85.4,74.0,29.98,ESE,112,0.0,6.0,71,0.00,,,0.00,Rainwise IP-100,2013-09-07 18:38:00,
2013-09-07 14:44:00,85.4,75.0,29.98,SSE,157,1.6,4.0,72,0.00,,,0.00,Rainwise IP-100,2013-09-07 18:44:00,
2013-09-07 14:49:00,85.8,75.0,29.98,ESE,112,0.0,5.0,72,0.00,,,0.00,Rainwise IP-100,2013-09-07 18:49:00,
2013-09-07 14:54:00,85.9,75.0,29.98,ESE,112,3.3,6.0,70,0.00,,,0.00,Rainwise IP-100,2013-09-07 18:54:00,
2013-09-07 14:59:00,86.2,74.0,29.98,SSE,157,3.5,5.0,69,0.00,,,0.00,Rainwise IP-100,2013-09-07 18:59:00,
2013-09-07 15:04:00,86.4,74.0,29.98,SE,135,3.7,5.0,68,0.00,,,0.00,Rainwise IP-100,2013-09-07 19:04:00,
2013-09-07 15:09:00,86.7,75.0,29.98,SE,135,1.2,4.0,69,0.00,,,0.00,Rainwise IP-100,2013-09-07 19:09:00,
2013-09-07 15:14:00,86.8,75.0,29.98,SE,135,4.2,4.2,69,0.00,,,0.00,Rainwise IP-100,2013-09-07 19:14:00,
2013-09-07 15:20:00,86.7,74.0,29.98,ENE,67,4.9,5.0,68,0.00,,,0.00,Rainwise IP-100,2013-09-07 19:20:00,
2013-09-07 15:25:00,86.5,74.0,29.97,ENE,67,2.8,7.0,68,0.00,,,0.00,Rainwise IP-100,2013-09-07 19:25:00,
2013-09-07 15:30:00,86.5,74.0,29.97,NE,45,3.0,6.0,68,0.00,,,0.00,Rainwise IP-100,2013-09-07 19:30:00,
2013-09-07 15:35:00,86.2,74.0,29.97,NE,45,6.1,6.1,68,0.00,,,0.00,Rainwise IP-100,2013-09-07 19:35:00,
2013-09-07 15:40:00,85.8,74.0,29.97,NE,45,4.4,6.0,69,0.00,,,0.00,Rainwise IP-100,2013-09-07 19:40:00,
2013-09-07 15:45:00,85.7,74.0,29.96,ENE,67,4.7,5.0,70,0.00,,,0.00,Rainwise IP-100,2013-09-07 19:45:00,
2013-09-07 15:50:00,85.7,74.0,29.96,ENE,67,3.5,4.0,70,0.00,,,0.00,Rainwise IP-100,2013-09-07 19:50:00,
2013-09-07 15:55:00,85.8,74.0,29.96,ENE,67,1.4,3.0,69,0.00,,,0.00,Rainwise IP-100,2013-09-07 19:55:00,
2013-09-07 16:01:00,86.0,74.0,29.96,NE,45,5.4,5.4,69,0.00,,,0.00,Rainwise IP-100,2013-09-07 20:01:00,
2013-09-07 16:06:00,85.8,74.0,29.96,ENE,67,5.8,5.8,70,0.00,,,0.00,Rainwise IP-100,2013-09-07 20:06:00,
2013-09-07 16:11:00,85.4,74.0,29.96,NNE,22,3.5,7.0,70,0.00,,,0.00,Rainwise IP-100,2013-09-07 20:11:00,
2013-09-07 16:16:00,84.9,74.0,29.96,NNW,337,5.1,11.0,70,0.00,,,0.00,Rainwise IP-100,2013-09-07 20:16:00,
2013-09-07 16:21:00,83.2,73.0,29.96,NNE,22,11.2,14.0,72,0.00,,,0.00,Rainwise IP-100,2013-09-07 20:21:00,
2013-09-07 16:26:00,81.4,72.0,29.96,NNW,337,4.7,14.0,75,0.00,,,0.00,Rainwise IP-100,2013-09-07 20:26:00,
2013-09-07 16:31:00,80.6,72.0,29.96,WNW,292,7.7,10.0,77,0.00,,,0.00,Rainwise IP-100,2013-09-07 20:31:00,
2013-09-07 16:37:00,80.1,72.0,29.95,NNW,337,6.1,14.0,78,0.00,,,0.00,Rainwise IP-100,2013-09-07 20:37:00,
2013-09-07 16:42:00,79.6,72.0,29.94,WNW,292,7.0,12.0,79,0.00,,,0.00,Rainwise IP-100,2013-09-07 20:42:00,
2013-09-07 16:47:00,79.4,72.0,29.94,NNW,337,4.7,11.0,80,0.00,,,0.00,Rainwise IP-100,2013-09-07 20:47:00,
2013-09-07 16:52:00,79.7,73.0,29.94,WNW,292,4.4,8.0,80,0.00,,,0.00,Rainwise IP-100,2013-09-07 20:52:00,
2013-09-07 16:57:00,80.2,73.0,29.94,NNW,337,9.1,9.1,80,0.00,,,0.00,Rainwise IP-100,2013-09-07 20:57:00,
2013-09-07 17:02:00,80.6,73.0,29.93,NNE,22,8.4,10.0,80,0.00,,,0.00,Rainwise IP-100,2013-09-07 21:02:00,
2013-09-07 17:07:00,80.7,74.0,29.93,NNW,337,8.6,11.0,80,0.00,,,0.00,Rainwise IP-100,2013-09-07 21:07:00,
2013-09-07 17:12:00,80.8,74.0,29.93,NW,315,6.5,11.0,80,0.00,,,0.00,Rainwise IP-100,2013-09-07 21:12:00,
2013-09-07 17:18:00,80.8,74.0,29.93,NNW,337,9.8,9.8,80,0.00,,,0.00,Rainwise IP-100,2013-09-07 21:18:00,
2013-09-07 17:23:00,80.7,74.0,29.93,NNW,337,3.3,11.0,80,0.00,,,0.00,Rainwise IP-100,2013-09-07 21:23:00,
2013-09-07 17:28:00,80.5,73.0,29.94,NNW,337,5.8,12.0,80,0.00,,,0.00,Rainwise IP-100,2013-09-07 21:28:00,
2013-09-07 17:33:00,80.2,73.0,29.94,NNW,337,9.1,11.0,81,0.00,,,0.00,Rainwise IP-100,2013-09-07 21:33:00,
2013-09-07 17:38:00,79.9,73.0,29.94,NNW,337,4.4,9.0,81,0.00,,,0.00,Rainwise IP-100,2013-09-07 21:38:00,
2013-09-07 17:43:00,79.9,73.0,29.95,NW,315,4.2,8.0,82,0.00,,,0.00,Rainwise IP-100,2013-09-07 21:43:00,
2013-09-07 17:48:00,79.8,73.0,29.95,NNW,337,4.0,8.0,82,0.00,,,0.00,Rainwise IP-100,2013-09-07 21:48:00,
2013-09-07 17:54:00,79.7,73.0,29.94,North,360,5.1,7.0,82,0.00,,,0.00,Rainwise IP-100,2013-09-07 21:54:00,
2013-09-07 17:59:00,79.9,73.0,29.94,NNE,22,2.6,5.0,82,0.00,,,0.00,Rainwise IP-100,2013-09-07 21:59:00,
2013-09-07 18:04:00,80.2,73.0,29.94,NNW,337,5.8,10.0,80,0.00,,,0.00,Rainwise IP-100,2013-09-07 22:04:00,
2013-09-07 18:09:00,81.1,73.0,29.94,NNW,337,3.5,9.0,78,0.00,,,0.00,Rainwise IP-100,2013-09-07 22:09:00,
2013-09-07 18:14:00,81.5,73.0,29.94,NNW,337,6.1,9.0,77,0.00,,,0.00,Rainwise IP-100,2013-09-07 22:14:00,
2013-09-07 18:19:00,81.3,73.0,29.94,NNE,22,3.5,8.0,76,0.00,,,0.00,Rainwise IP-100,2013-09-07 22:19:00,
2013-09-07 18:24:00,81.0,72.0,29.94,NNW,337,7.5,7.5,76,0.00,,,0.00,Rainwise IP-100,2013-09-07 22:24:00,
2013-09-07 18:29:00,80.8,73.0,29.94,NNW,337,4.2,8.0,77,0.00,,,0.00,Rainwise IP-100,2013-09-07 22:29:00,
2013-09-07 18:35:00,80.5,73.0,29.94,North,360,4.2,6.0,78,0.00,,,0.00,Rainwise IP-100,2013-09-07 22:35:00,
2013-09-07 18:40:00,80.3,73.0,29.94,NW,315,2.8,5.0,79,0.00,,,0.00,Rainwise IP-100,2013-09-07 22:40:00,
2013-09-07 18:45:00,80.2,73.0,29.94,NNW,337,4.4,4.4,80,0.00,,,0.00,Rainwise IP-100,2013-09-07 22:45:00,
2013-09-07 18:50:00,79.9,73.0,29.94,NNW,337,3.0,7.0,80,0.00,,,0.00,Rainwise IP-100,2013-09-07 22:50:00,
2013-09-07 18:55:00,79.5,73.0,29.95,NNW,337,4.4,7.0,81,0.00,,,0.00,Rainwise IP-100,2013-09-07 22:55:00,
2013-09-07 19:00:00,79.3,73.0,29.95,NW,315,3.7,7.0,82,0.00,,,0.00,Rainwise IP-100,2013-09-07 23:00:00,
2013-09-07 19:05:00,79.1,73.0,29.95,NNW,337,3.3,8.0,83,0.00,,,0.00,Rainwise IP-100,2013-09-07 23:05:00,
2013-09-07 19:11:00,79.0,73.0,29.95,NNW,337,4.2,6.0,83,0.00,,,0.00,Rainwise IP-100,2013-09-07 23:11:00,
2013-09-07 19:16:00,78.9,73.0,29.95,NNW,337,3.5,8.0,84,0.00,,,0.00,Rainwise IP-100,2013-09-07 23:16:00,
2013-09-07 19:21:00,78.9,73.0,29.95,NNW,337,8.9,8.9,84,0.00,,,0.00,Rainwise IP-100,2013-09-07 23:21:00,
2013-09-07 19:26:00,78.9,73.0,29.96,NNW,337,4.4,8.0,84,0.00,,,0.00,Rainwise IP-100,2013-09-07 23:26:00,
2013-09-07 19:31:00,78.8,73.0,29.96,NNW,337,4.0,6.0,84,0.00,,,0.00,Rainwise IP-100,2013-09-07 23:31:00,
2013-09-07 19:36:00,78.8,73.0,29.96,WNW,292,4.7,7.0,84,0.00,,,0.00,Rainwise IP-100,2013-09-07 23:36:00,
2013-09-07 19:41:00,78.7,73.0,29.96,WNW,292,3.7,7.0,84,0.00,,,0.00,Rainwise IP-100,2013-09-07 23:41:00,
2013-09-07 19:46:00,78.6,73.0,29.96,WNW,292,4.0,6.0,85,0.00,,,0.00,Rainwise IP-100,2013-09-07 23:46:00,
2013-09-07 19:52:00,78.6,73.0,29.97,NNW,337,3.5,6.0,85,0.00,,,0.00,Rainwise IP-100,2013-09-07 23:52:00,
2013-09-07 19:57:00,78.6,73.0,29.96,NNW,337,1.9,5.0,85,0.00,,,0.00,Rainwise IP-100,2013-09-07 23:57:00,
2013-09-07 20:02:00,78.5,73.0,29.96,NW,315,1.9,4.0,85,0.00,,,0.00,Rainwise IP-100,2013-09-08 00:02:00,
2013-09-07 20:07:00,78.5,73.0,29.96,WNW,292,3.0,4.0,85,0.00,,,0.00,Rainwise IP-100,2013-09-08 00:07:00,
2013-09-07 20:12:00,78.4,73.0,29.97,WNW,292,2.1,6.0,86,0.00,,,0.00,Rainwise IP-100,2013-09-08 00:12:00,
2013-09-07 20:17:00,78.3,73.0,29.97,WNW,292,2.8,6.0,85,0.00,,,0.00,Rainwise IP-100,2013-09-08 00:17:00,
2013-09-07 20:22:00,78.2,73.0,29.97,NW,315,3.3,5.0,85,0.00,,,0.00,Rainwise IP-100,2013-09-08 00:22:00,
2013-09-07 20:28:00,78.3,73.0,29.97,NNW,337,2.6,5.0,85,0.00,,,0.00,Rainwise IP-100,2013-09-08 00:28:00,
2013-09-07 20:33:00,78.2,73.0,29.97,NNW,337,1.2,3.0,85,0.00,,,0.00,Rainwise IP-100,2013-09-08 00:33:00,
2013-09-07 20:38:00,78.1,73.0,29.97,WNW,292,2.8,3.0,86,0.00,,,0.00,Rainwise IP-100,2013-09-08 00:38:00,
2013-09-07 20:43:00,78.1,73.0,29.97,NW,315,0.0,3.0,86,0.00,,,0.00,Rainwise IP-100,2013-09-08 00:43:00,
2013-09-07 20:48:00,78.1,73.0,29.97,NNW,337,2.8,4.0,86,0.00,,,0.00,Rainwise IP-100,2013-09-08 00:48:00,
2013-09-07 20:53:00,78.0,73.0,29.97,NNW,337,2.1,3.0,86,0.00,,,0.00,Rainwise IP-100,2013-09-08 00:53:00,
2013-09-07 20:58:00,78.0,73.0,29.97,NNW,337,4.2,4.2,86,0.00,,,0.00,Rainwise IP-100,2013-09-08 00:58:00,
2013-09-07 21:03:00,78.1,73.0,29.98,NW,315,3.7,5.0,85,0.00,,,0.00,Rainwise IP-100,2013-09-08 01:03:00,
2013-09-07 21:09:00,78.2,73.0,29.98,NNW,337,1.9,4.0,85,0.00,,,0.00,Rainwise IP-100,2013-09-08 01:09:00,
2013-09-07 21:14:00,78.1,73.0,29.98,NNW,337,3.0,5.0,85,0.00,,,0.00,Rainwise IP-100,2013-09-08 01:14:00,
2013-09-07 21:19:00,78.1,73.0,29.98,WNW,292,1.9,6.0,85,0.00,,,0.00,Rainwise IP-100,2013-09-08 01:19:00,
2013-09-07 21:24:00,78.0,73.0,29.98,NNW,337,4.0,7.0,85,0.00,,,0.00,Rainwise IP-100,2013-09-08 01:24:00,
2013-09-07 21:29:00,77.8,73.0,29.99,NW,315,5.4,7.0,85,0.00,,,0.00,Rainwise IP-100,2013-09-08 01:29:00,
2013-09-07 21:34:00,77.7,73.0,29.99,NNW,337,5.1,7.0,85,0.00,,,0.00,Rainwise IP-100,2013-09-08 01:34:00,
2013-09-07 21:39:00,77.6,73.0,29.99,NNW,337,4.7,7.0,85,0.00,,,0.00,Rainwise IP-100,2013-09-08 01:39:00,
2013-09-07 21:45:00,77.5,73.0,29.99,NNW,337,4.9,6.0,85,0.00,,,0.00,Rainwise IP-100,2013-09-08 01:45:00,
2013-09-07 21:50:00,77.4,72.0,29.99,NNW,337,3.3,6.0,85,0.00,,,0.00,Rainwise IP-100,2013-09-08 01:50:00,
2013-09-07 21:55:00,77.3,72.0,29.99,NNW,337,2.1,5.0,85,0.00,,,0.00,Rainwise IP-100,2013-09-08 01:55:00,
2013-09-07 22:00:00,77.3,72.0,30.00,WNW,292,1.2,6.0,85,0.00,,,0.00,Rainwise IP-100,2013-09-08 02:00:00,
2013-09-07 22:05:00,77.3,72.0,30.00,NNW,337,3.3,6.0,85,0.00,,,0.00,Rainwise IP-100,2013-09-08 02:05:00,
2013-09-07 22:10:00,77.3,72.0,30.00,NNW,337,4.9,7.0,85,0.00,,,0.00,Rainwise IP-100,2013-09-08 02:10:00,
2013-09-07 22:15:00,77.3,72.0,29.99,NNW,337,3.0,6.0,85,0.00,,,0.00,Rainwise IP-100,2013-09-08 02:15:00,
2013-09-07 22:20:00,77.3,72.0,29.99,WNW,292,3.3,6.0,85,0.00,,,0.00,Rainwise IP-100,2013-09-08 02:20:00,
2013-09-07 22:26:00,77.3,72.0,29.98,NNW,337,1.9,5.0,85,0.00,,,0.00,Rainwise IP-100,2013-09-08 02:26:00,
2013-09-07 22:31:00,77.3,72.0,29.98,NW,315,1.9,3.0,85,0.00,,,0.00,Rainwise IP-100,2013-09-08 02:31:00,
2013-09-07 22:36:00,77.2,72.0,29.98,WNW,292,1.9,3.0,85,0.00,,,0.00,Rainwise IP-100,2013-09-08 02:36:00,
2013-09-07 22:41:00,77.0,72.0,29.98,NW,315,3.7,4.0,86,0.00,,,0.00,Rainwise IP-100,2013-09-08 02:41:00,
2013-09-07 22:46:00,77.1,72.0,29.98,NNW,337,2.8,5.0,86,0.00,,,0.00,Rainwise IP-100,2013-09-08 02:46:00,
2013-09-07 22:51:00,77.1,72.0,29.98,NNW,337,3.3,5.0,86,0.00,,,0.00,Rainwise IP-100,2013-09-08 02:51:00,
2013-09-07 22:56:00,77.1,72.0,29.98,WNW,292,1.6,5.0,86,0.00,,,0.00,Rainwise IP-100,2013-09-08 02:56:00,
2013-09-07 23:02:00,77.0,72.0,29.98,WNW,292,6.1,6.1,86,0.00,,,0.00,Rainwise IP-100,2013-09-08 03:02:00,
2013-09-07 23:07:00,77.0,72.0,29.98,NNW,337,0.0,6.0,86,0.00,,,0.00,Rainwise IP-100,2013-09-08 03:07:00,
2013-09-07 23:12:00,76.9,72.0,29.98,WNW,292,4.0,6.0,86,0.00,,,0.00,Rainwise IP-100,2013-09-08 03:12:00,
2013-09-07 23:17:00,76.8,72.0,29.98,NW,315,4.0,5.0,85,0.00,,,0.00,Rainwise IP-100,2013-09-08 03:17:00,
2013-09-07 23:22:00,76.8,72.0,29.97,WNW,292,3.7,5.0,85,0.00,,,0.00,Rainwise IP-100,2013-09-08 03:22:00,
2013-09-07 23:27:00,76.9,72.0,29.97,NW,315,3.0,4.0,85,0.00,,,0.00,Rainwise IP-100,2013-09-08 03:27:00,
2013-09-07 23:32:00,76.9,72.0,29.97,WNW,292,3.0,5.0,84,0.00,,,0.00,Rainwise IP-100,2013-09-08 03:32:00,
2013-09-07 23:37:00,76.9,72.0,29.98,NNW,337,1.4,5.0,84,0.00,,,0.00,Rainwise IP-100,2013-09-08 03:37:00,
2013-09-07 23:43:00,76.9,72.0,29.97,NNW,337,2.3,6.0,84,0.00,,,0.00,Rainwise IP-100,2013-09-08 03:43:00,
2013-09-07 23:48:00,76.9,72.0,29.97,NNW,337,1.9,4.0,84,0.00,,,0.00,Rainwise IP-100,2013-09-08 03:48:00,
2013-09-07 23:53:00,76.8,71.0,29.97,WNW,292,0.0,4.0,84,0.00,,,0.00,Rainwise IP-100,2013-09-08 03:53:00,
2013-09-07 23:58:00,76.8,71.0,29.97,WNW,292,2.8,4.0,84,0.00,,,0.00,Rainwise IP-100,2013-09-08 03:58:00,